Regional Weather Roundup
Issued by NWS

Home | Current Version | Previous Version | Text Only | Print | Product List | Glossary Off
Versions: 1 2 3 4 5 6 7 8 9 10 11 12 13 14 15 16 17 18 19 20 21 22 23 24 25 26 27 28 29 30 31 32 33 34 35 36 37 38 39 40 41 42 43 44 45 46 47 48 49 50

000
ASUS43 KLOT 250406
RWRIL

ILLINOIS REGIONAL WEATHER ROUNDUP
NATIONAL WEATHER SERVICE CHICAGO/ROMEOVILLE IL
1000 PM CST SAT JAN 24 2015

NOTE: "FAIR" INDICATES FEW OR NO CLOUDS BELOW 12,000 FEET WITH NO
SIGNIFICANT WEATHER AND/OR OBSTRUCTIONS TO VISIBILITY.

* THESE STATIONS ARE NOT UNDER NWS QUALITY CONTROL. THEY ALSO MAY NOT
  REPORT WEATHER SUCH AS PRECIPITATION OR FOG.

ILZ001-002-007-009-015-016-024-250500-
NORTHWEST ILLINOIS

CITY           SKY/WX    TMP DP  RH WIND       PRES   REMARKS
MOLINE         CLOUDY    34  30  85 E3        29.61F
STERLING*      MOCLDY    34  30  86 SE3       29.63F
SAVANNA*       CLOUDY    36  32  87 CALM      29.63S
$$

ILZ003-004-008-010-011-017-018-250500-
NORTH CENTRAL ILLINOIS

CITY           SKY/WX    TMP DP  RH WIND       PRES   REMARKS
ROCKFORD       CLOUDY    31  28  89 E3        29.67S
FREEPORT*      CLOUDY    31  30  96 E5        29.65F FOG     WCI  26
ROCHELLE*      MOCLDY    32  32  99 CALM      29.65S
DE KALB*       CLOUDY    30  29  96 CALM      29.65F FOG
PERU*          MOCLDY    37  34  89 S3        29.65S
$$

ILZ005-006-012>014-019>023-250500-
NORTHEAST ILLINOIS

CITY           SKY/WX    TMP DP  RH WIND       PRES   REMARKS
CHICAGO-OHARE  CLOUDY    32  29  88 CALM      29.67F
CHICAGO-MIDWAY CLOUDY    36  31  82 CALM      29.68S
AURORA         CLOUDY    32  28  85 NE5       29.66F FOG     WCI  27
LANSING*       MOCLDY    33  32  97 NE3       29.68S FOG
JOLIET*        CLOUDY    29  28  97 CALM      29.66F FOG
WAUKEGAN       CLOUDY    32  29  88 CALM      29.68S
DUPAGE AIRPORT CLOUDY    32  29  88 NE7       29.66S WCI  26
KANKAKEE*      CLOUDY    34  33  94 S3        29.68F
WHEELING       CLOUDY    32  29  88 CALM      29.70S
MORRIS*        CLOUDY    34  34  99 E3        29.65F
ROMEOVILLE*    CLOUDY    32  32 100 SE3       29.66F FOG
NORTHERLY ISL    N/A     34  30  86 NE5         N/A  WCI  30
$$

LMZ740>746-250500-
SOUTHERN LAKE MICHIGAN

STATION/POSITION SKY/WX   TEMP    WIND        PRES    VSBY  WAVE
                          AIR SEA DIR/SP/G                  HT/PER
                          (F)     (DEG/KT/KT) (MB)    (MI)  (FT/S)
WAUKEGAN HARBOR            32        CALM       N/A
HARRISON CRIB              34     350/  5/  5   N/A
BURNHAM HARBOR             33      50/  2/  5   N/A
CALUMET HARBOR             33      20/  5/  5   N/A
MICHIGAN CITY              34     190/  3/  4   N/A
$$

ILZ025>027-034>036-040-047-049-050-058-095>099-250500-
WEST-CENTRAL ILLINOIS

CITY           SKY/WX    TMP DP  RH WIND       PRES   REMARKS
QUINCY         CLOUDY    41  31  67 SW9       29.65F
GALESBURG*     CLOUDY    36  33  87 S5        29.63F WCI  32
MACOMB*        CLOUDY    40  33  76 SW7       29.66F
JACKSONVILLE*  CLOUDY    46  33  62 S8        29.67F
PITTSFIELD*    CLOUDY    47  33  59 SW7       29.67F
$$

ILZ028>032-037-038-041>044-048-051>054-059>061-250500-
CENTRAL ILLINOIS

CITY           SKY/WX    TMP DP  RH WIND       PRES   REMARKS
PONTIAC        MOCLDY    36  34  94 CALM      29.67F
BLOOMINGTON    PTCLDY    35  33  92 S8        29.68F WCI  28
DECATUR        MOCLDY    38  33  82 SW8       29.70F WCI  32
PEORIA         CLOUDY    38  33  82 S5        29.65F WCI  34
LACON*         CLOUDY    38  33  80 S3        29.65S
LINCOLN*       MOCLDY    38  33  82 S5        29.67F WCI  35
SPRINGFIELD    CLOUDY    42  33  70 S8        29.68F
TAYLORVILLE    CLOUDY    37  32  81 S7        29.70F WCI  32
$$

ILZ033-039-045-046-055>057-062-063-250500-
EAST-CENTRAL ILLINOIS

CITY           SKY/WX    TMP DP  RH WIND       PRES   REMARKS
CHAMPAIGN      MOCLDY    35  32  88 S8        29.69F WCI  29
DANVILLE*      CLOUDY    35  32  90 SW6       29.69S WCI  30
RANTOUL*       CLOUDY    38  34  87 SW7       29.69F WCI  32
MATTOON        MOCLDY    38  32  79 S7        29.71F WCI  33
PARIS*         CLOUDY    37  34  89 S9        29.73F WCI  30
$$

ILZ079-100>102-250500-
SOUTHWEST ILLINOIS

CITY           SKY/WX    TMP DP  RH WIND       PRES   REMARKS
ALTON          CLOUDY    43  29  59 S8        29.72F
BELLEVILLE     CLOUDY    46  33  60 S6        29.73F
CAHOKIA*       CLOUDY    52  32  46 SW8       29.72F
SPARTA*        MOCLDY    44  32  64 S8        29.77F
$$

ILZ064>066-069>071-074>076-080>082-084>086-088>090-092>094-250500-
SOUTH-CENTRAL ILLINOIS

CITY           SKY/WX    TMP DP  RH WIND       PRES   REMARKS
CARBONDALE     PTCLDY    43  32  65 SW10      29.79F
CAIRO*         MOCLDY    47  33  59 S10       29.84S
EFFINGHAM*     MOCLDY    40  30  68 S6        29.75F
MARION         MOCLDY    41  34  75 S9        29.79F
MT. VERNON     PTCLDY    37  30  75 S6        29.77F WCI  33
CENTRALIA*     MOCLDY    39  32  75 S8        29.75F WCI  34
SALEM*         MOCLDY    43  33  68 S7        29.75F
METROPOLIS*    MOCLDY    46  33  61 SW7       29.83S
$$

ILZ067-068-072-073-078-083-087-091-250500-
SOUTHEAST ILLINOIS

CITY           SKY/WX    TMP DP  RH WIND       PRES   REMARKS
LAWRENCEVILLE  CLOUDY    35  31  85 S6        29.78F WCI  30
FLORA*         CLOUDY    37  32  81 S9        29.76F WCI  30
FAIRFIELD*     PTCLDY    38  32  80 S6        29.77F WCI  33
HARRISBURG*    MOCLDY    43  33  66 SW7       29.81F
ROBINSON*      MOCLDY    36  32  85 S8        29.77F WCI  30
CARMI*         PTCLDY    39  36  87 S7        29.79S WCI  34
$$

ABBREVIATIONS USED IN REMARKS
   TC - TEMPERATURE IN CELSIUS
  WCI - WIND CHILL INDEX
   HX - HEAT INDEX
  VSB - VISIBILITY
$$




USA.gov is the U.S. government's official web portal to all federal, state and local government web resources and services.